Time,TemperatureF,DewpointF,PressureIn,WindDirection,WindDirectionDegrees,WindSpeedMPH,WindSpeedGustMPH,Humidity,HourlyPrecipIn,Conditions,Clouds,dailyrainin,SoftwareType,DateUTC
2013-01-02 00:05:00,40.5,40.0,29.98,ESE,115,0.0,0.0,96,0.03,,,0.79,weatherlink.com 1.10,2013-01-02 05:05:00,
2013-01-02 00:20:00,40.4,39.0,29.98,ESE,115,0.0,0.0,96,0.03,,,0.80,weatherlink.com 1.10,2013-01-02 05:20:00,
2013-01-02 00:35:00,40.4,39.0,29.97,ESE,115,0.0,1.0,96,0.03,,,0.81,weatherlink.com 1.10,2013-01-02 05:35:00,
2013-01-02 00:51:00,40.6,40.0,29.96,ESE,115,0.0,2.0,97,0.03,,,0.82,weatherlink.com 1.10,2013-01-02 05:51:00,
2013-01-02 01:06:00,40.8,40.0,29.96,ESE,115,0.0,2.0,96,0.03,,,0.83,weatherlink.com 1.10,2013-01-02 06:06:00,
2013-01-02 01:21:00,40.6,40.0,29.96,ESE,115,0.0,0.0,96,0.03,,,0.83,weatherlink.com 1.10,2013-01-02 06:21:00,
2013-01-02 01:36:00,40.6,40.0,29.96,ESE,115,0.0,0.0,96,0.03,,,0.84,weatherlink.com 1.10,2013-01-02 06:36:00,
2013-01-02 01:51:00,40.9,40.0,29.95,ENE,73,3.0,3.0,96,0.03,,,0.85,weatherlink.com 1.10,2013-01-02 06:51:00,
2013-01-02 02:06:00,41.2,40.0,29.96,NE,51,2.0,3.0,97,0.03,,,0.01,weatherlink.com 1.10,2013-01-02 07:06:00,
2013-01-02 02:21:00,41.3,41.0,29.97,NNE,12,4.0,4.0,97,0.03,,,0.01,weatherlink.com 1.10,2013-01-02 07:21:00,
2013-01-02 02:36:00,41.4,41.0,29.98,East,96,1.0,5.0,97,0.03,,,0.02,weatherlink.com 1.10,2013-01-02 07:36:00,
2013-01-02 02:51:00,40.9,40.0,29.96,East,92,2.0,7.0,96,0.02,,,0.02,weatherlink.com 1.10,2013-01-02 07:51:00,
2013-01-02 03:06:00,40.4,39.0,29.98,ENE,67,2.0,12.0,96,0.02,,,0.03,weatherlink.com 1.10,2013-01-02 08:06:00,
2013-01-02 03:21:00,40.0,39.0,29.99,ENE,67,1.0,5.0,96,0.03,,,0.04,weatherlink.com 1.10,2013-01-02 08:21:00,
2013-01-02 03:36:00,39.7,38.0,29.99,ESE,111,3.0,9.0,95,0.02,,,0.04,weatherlink.com 1.10,2013-01-02 08:36:00,
2013-01-02 03:51:00,38.9,37.0,30.00,ENE,73,4.0,7.0,94,0.02,,,0.05,weatherlink.com 1.10,2013-01-02 08:51:00,
2013-01-02 04:06:00,38.1,37.0,30.01,ENE,71,1.0,8.0,94,0.02,,,0.05,weatherlink.com 1.10,2013-01-02 09:06:00,
2013-01-02 04:21:00,37.5,36.0,30.00,ENE,67,1.0,6.0,94,0.02,,,0.06,weatherlink.com 1.10,2013-01-02 09:21:00,
2013-01-02 04:36:00,37.3,36.0,30.00,East,87,0.0,2.0,95,0.02,,,0.06,weatherlink.com 1.10,2013-01-02 09:36:00,
2013-01-02 04:51:00,37.1,36.0,30.00,East,87,0.0,2.0,95,0.02,,,0.07,weatherlink.com 1.10,2013-01-02 09:51:00,
2013-01-02 05:06:00,36.9,36.0,29.98,SE,126,0.0,5.0,95,0.02,,,0.07,weatherlink.com 1.10,2013-01-02 10:06:00,
2013-01-02 05:21:00,36.6,35.0,29.98,North,5,0.0,2.0,95,0.01,,,0.07,weatherlink.com 1.10,2013-01-02 10:21:00,
2013-01-02 05:36:00,36.4,35.0,29.99,NNE,21,0.0,2.0,95,0.01,,,0.07,weatherlink.com 1.10,2013-01-02 10:36:00,
2013-01-02 05:51:00,36.4,35.0,29.99,NNE,21,0.0,2.0,95,0.01,,,0.08,weatherlink.com 1.10,2013-01-02 10:51:00,
2013-01-02 06:06:00,36.3,35.0,30.00,NNE,21,0.0,1.0,95,0.01,,,0.08,weatherlink.com 1.10,2013-01-02 11:06:00,
2013-01-02 06:21:00,36.3,35.0,30.01,ESE,105,4.0,8.0,95,0.01,,,0.08,weatherlink.com 1.10,2013-01-02 11:21:00,
2013-01-02 06:36:00,36.0,35.0,30.01,ESE,111,3.0,8.0,95,0.01,,,0.08,weatherlink.com 1.10,2013-01-02 11:36:00,
2013-01-02 06:51:00,35.4,34.0,30.02,ESE,113,10.0,11.0,95,0.00,,,0.08,weatherlink.com 1.10,2013-01-02 11:51:00,
2013-01-02 07:06:00,35.0,34.0,30.04,East,96,6.0,9.0,95,0.00,,,0.08,weatherlink.com 1.10,2013-01-02 12:06:00,
2013-01-02 07:21:00,34.8,34.0,30.04,ESE,111,1.0,6.0,96,0.00,,,0.08,weatherlink.com 1.10,2013-01-02 12:21:00,
2013-01-02 07:36:00,34.7,34.0,30.05,ENE,69,4.0,6.0,95,0.00,,,0.08,weatherlink.com 1.10,2013-01-02 12:36:00,
2013-01-02 07:51:00,34.4,33.0,30.06,ESE,116,1.0,5.0,95,0.00,,,0.08,weatherlink.com 1.10,2013-01-02 12:51:00,
2013-01-02 08:06:00,34.2,33.0,30.06,East,86,10.0,10.0,95,0.00,,,0.08,weatherlink.com 1.10,2013-01-02 13:06:00,
2013-01-02 08:21:00,33.8,33.0,30.06,ENE,63,0.0,9.0,95,0.00,,,0.08,weatherlink.com 1.10,2013-01-02 13:21:00,
2013-01-02 08:37:00,33.5,32.0,30.06,ENE,59,4.0,8.0,95,0.00,,,0.08,weatherlink.com 1.10,2013-01-02 13:37:00,
2013-01-02 08:52:00,33.4,32.0,30.08,East,96,5.0,8.0,95,0.00,,,0.08,weatherlink.com 1.10,2013-01-02 13:52:00,
2013-01-02 09:07:00,33.2,32.0,30.08,ENE,63,7.0,8.0,95,0.00,,,0.08,weatherlink.com 1.10,2013-01-02 14:07:00,
2013-01-02 09:22:00,33.1,32.0,30.08,East,101,1.0,5.0,95,0.00,,,0.08,weatherlink.com 1.10,2013-01-02 14:22:00,
2013-01-02 09:37:00,33.1,32.0,30.08,NNW,335,0.0,7.0,95,0.00,,,0.08,weatherlink.com 1.10,2013-01-02 14:37:00,
2013-01-02 09:52:00,33.1,32.0,30.10,East,98,5.0,5.0,95,0.00,,,0.08,weatherlink.com 1.10,2013-01-02 14:52:00,
2013-01-02 10:07:00,33.1,32.0,30.10,ESE,120,2.0,5.0,95,0.01,,,0.09,weatherlink.com 1.10,2013-01-02 15:07:00,
2013-01-02 10:22:00,33.0,32.0,30.11,East,94,3.0,5.0,94,0.01,,,0.09,weatherlink.com 1.10,2013-01-02 15:22:00,
2013-01-02 10:37:00,33.4,32.0,30.12,ESE,113,1.0,5.0,95,0.01,,,0.09,weatherlink.com 1.10,2013-01-02 15:37:00,
2013-01-02 10:52:00,33.5,32.0,30.11,ENE,76,2.0,5.0,93,0.01,,,0.09,weatherlink.com 1.10,2013-01-02 15:52:00,
2013-01-02 11:07:00,33.7,32.0,30.12,East,88,1.0,8.0,92,0.00,,,0.09,weatherlink.com 1.10,2013-01-02 16:07:00,
2013-01-02 11:22:00,34.1,32.0,30.11,ENE,78,3.0,7.0,90,0.00,,,0.09,weatherlink.com 1.10,2013-01-02 16:22:00,
2013-01-02 11:37:00,34.4,32.0,30.11,NE,52,3.0,7.0,91,0.00,,,0.09,weatherlink.com 1.10,2013-01-02 16:37:00,
2013-01-02 11:52:00,34.5,32.0,30.10,East,92,5.0,8.0,90,0.00,,,0.09,weatherlink.com 1.10,2013-01-02 16:52:00,
2013-01-02 12:07:00,35.0,32.0,30.09,ESE,104,4.0,8.0,90,0.00,,,0.09,weatherlink.com 1.10,2013-01-02 17:07:00,
2013-01-02 12:22:00,35.3,32.0,30.09,ESE,103,2.0,5.0,89,0.00,,,0.09,weatherlink.com 1.10,2013-01-02 17:22:00,
2013-01-02 12:37:00,35.3,32.0,30.09,ESE,102,1.0,7.0,89,0.00,,,0.09,weatherlink.com 1.10,2013-01-02 17:37:00,
2013-01-02 12:52:00,35.8,33.0,30.09,NE,44,3.0,8.0,89,0.00,,,0.09,weatherlink.com 1.10,2013-01-02 17:52:00,
2013-01-02 13:07:00,36.1,33.0,30.09,ESE,109,3.0,9.0,87,0.00,,,0.09,weatherlink.com 1.10,2013-01-02 18:07:00,
2013-01-02 13:22:00,35.7,32.0,30.09,East,99,2.0,7.0,87,0.00,,,0.09,weatherlink.com 1.10,2013-01-02 18:22:00,
2013-01-02 13:37:00,35.3,32.0,30.08,East,100,3.0,9.0,88,0.00,,,0.09,weatherlink.com 1.10,2013-01-02 18:37:00,
2013-01-02 13:52:00,35.3,32.0,30.08,East,94,1.0,5.0,88,0.00,,,0.09,weatherlink.com 1.10,2013-01-02 18:52:00,
2013-01-02 14:07:00,35.3,32.0,30.08,ESE,115,3.0,9.0,88,0.00,,,0.09,weatherlink.com 1.10,2013-01-02 19:07:00,
2013-01-02 14:22:00,35.5,32.0,30.09,East,97,5.0,8.0,87,0.00,,,0.09,weatherlink.com 1.10,2013-01-02 19:22:00,
2013-01-02 14:37:00,35.6,32.0,30.08,ESE,111,1.0,7.0,88,0.00,,,0.09,weatherlink.com 1.10,2013-01-02 19:37:00,
2013-01-02 14:52:00,35.3,32.0,30.09,ESE,107,3.0,9.0,88,0.00,,,0.09,weatherlink.com 1.10,2013-01-02 19:52:00,
2013-01-02 15:07:00,35.3,32.0,30.09,East,84,1.0,5.0,88,0.00,,,0.09,weatherlink.com 1.10,2013-01-02 20:07:00,
2013-01-02 15:22:00,35.2,32.0,30.10,ENE,78,4.0,7.0,88,0.00,,,0.09,weatherlink.com 1.10,2013-01-02 20:22:00,
2013-01-02 15:37:00,35.2,32.0,30.09,East,88,1.0,8.0,87,0.00,,,0.09,weatherlink.com 1.10,2013-01-02 20:37:00,
2013-01-02 15:52:00,35.2,32.0,30.11,ENE,77,3.0,7.0,87,0.00,,,0.09,weatherlink.com 1.10,2013-01-02 20:52:00,
2013-01-02 16:07:00,35.1,32.0,30.12,East,90,3.0,7.0,87,0.00,,,0.09,weatherlink.com 1.10,2013-01-02 21:07:00,
2013-01-02 16:22:00,34.8,31.0,30.11,East,90,0.0,6.0,87,0.00,,,0.09,weatherlink.com 1.10,2013-01-02 21:22:00,
2013-01-02 16:37:00,34.6,31.0,30.12,East,88,3.0,7.0,87,0.00,,,0.09,weatherlink.com 1.10,2013-01-02 21:37:00,
2013-01-02 16:52:00,34.4,31.0,30.12,ENE,63,4.0,7.0,88,0.00,,,0.09,weatherlink.com 1.10,2013-01-02 21:52:00,
2013-01-02 17:07:00,34.3,31.0,30.12,East,98,3.0,5.0,88,0.00,,,0.09,weatherlink.com 1.10,2013-01-02 22:07:00,
2013-01-02 17:22:00,34.2,31.0,30.12,ENE,59,3.0,7.0,88,0.00,,,0.09,weatherlink.com 1.10,2013-01-02 22:22:00,
2013-01-02 17:37:00,34.1,31.0,30.11,East,94,0.0,3.0,88,0.00,,,0.09,weatherlink.com 1.10,2013-01-02 22:37:00,
2013-01-02 17:52:00,34.0,31.0,30.13,ESE,115,0.0,3.0,89,0.00,,,0.09,weatherlink.com 1.10,2013-01-02 22:52:00,
2013-01-02 18:07:00,33.9,31.0,30.14,ESE,104,0.0,5.0,89,0.00,,,0.09,weatherlink.com 1.10,2013-01-02 23:07:00,
2013-01-02 18:22:00,34.0,31.0,30.15,ESE,104,0.0,0.0,89,0.00,,,0.09,weatherlink.com 1.10,2013-01-02 23:22:00,
2013-01-02 18:37:00,33.9,31.0,30.15,ESE,104,0.0,2.0,89,0.00,,,0.09,weatherlink.com 1.10,2013-01-02 23:37:00,
2013-01-02 18:52:00,33.9,31.0,30.14,ESE,104,0.0,0.0,89,0.00,,,0.09,weatherlink.com 1.10,2013-01-02 23:52:00,
2013-01-02 19:07:00,33.8,31.0,30.16,ESE,104,0.0,1.0,90,0.00,,,0.09,weatherlink.com 1.10,2013-01-03 00:07:00,
2013-01-02 19:22:00,33.8,31.0,30.16,ESE,104,1.0,1.0,90,0.00,,,0.09,weatherlink.com 1.10,2013-01-03 00:22:00,
2013-01-02 19:37:00,33.8,31.0,30.16,ESE,104,0.0,2.0,90,0.00,,,0.09,weatherlink.com 1.10,2013-01-03 00:37:00,
2013-01-02 19:52:00,33.7,31.0,30.14,ESE,104,0.0,0.0,90,0.00,,,0.09,weatherlink.com 1.10,2013-01-03 00:52:00,
2013-01-02 20:07:00,33.8,31.0,30.15,ESE,104,0.0,0.0,90,0.00,,,0.09,weatherlink.com 1.10,2013-01-03 01:07:00,
2013-01-02 20:22:00,33.7,31.0,30.15,ESE,104,0.0,0.0,90,0.00,,,0.09,weatherlink.com 1.10,2013-01-03 01:22:00,
2013-01-02 20:37:00,33.7,31.0,30.16,ESE,104,0.0,0.0,91,0.00,,,0.09,weatherlink.com 1.10,2013-01-03 01:37:00,
2013-01-02 20:52:00,33.7,31.0,30.15,ESE,104,0.0,0.0,91,0.00,,,0.09,weatherlink.com 1.10,2013-01-03 01:52:00,
2013-01-02 21:07:00,33.7,31.0,30.16,ESE,104,0.0,1.0,91,0.00,,,0.09,weatherlink.com 1.10,2013-01-03 02:07:00,
2013-01-02 21:22:00,33.7,32.0,30.16,ESE,104,0.0,0.0,92,0.00,,,0.09,weatherlink.com 1.10,2013-01-03 02:22:00,
2013-01-02 21:37:00,33.7,32.0,30.16,ESE,104,0.0,0.0,92,0.00,,,0.09,weatherlink.com 1.10,2013-01-03 02:37:00,
2013-01-02 21:52:00,33.7,32.0,30.16,ESE,104,0.0,1.0,92,0.00,,,0.09,weatherlink.com 1.10,2013-01-03 02:52:00,
2013-01-02 22:07:00,33.7,32.0,30.17,WSW,238,0.0,2.0,92,0.00,,,0.09,weatherlink.com 1.10,2013-01-03 03:07:00,
2013-01-02 22:22:00,33.7,32.0,30.17,WSW,238,0.0,2.0,92,0.00,,,0.09,weatherlink.com 1.10,2013-01-03 03:22:00,
2013-01-02 22:52:00,35.3,33.0,30.16,West,263,0.0,3.0,91,0.00,,,0.09,weatherlink.com 1.10,2013-01-03 03:52:00,
2013-01-02 23:07:00,35.5,33.0,30.17,ENE,63,0.0,3.0,90,0.00,,,0.09,weatherlink.com 1.10,2013-01-03 04:07:00,
2013-01-02 23:22:00,35.7,33.0,30.15,ENE,59,2.0,4.0,89,0.00,,,0.09,weatherlink.com 1.10,2013-01-03 04:22:00,
2013-01-02 23:37:00,35.9,32.0,30.16,WSW,254,1.0,5.0,87,0.00,,,0.09,weatherlink.com 1.10,2013-01-03 04:37:00,
2013-01-02 23:52:00,35.9,32.0,30.16,WSW,248,0.0,7.0,87,0.00,,,0.09,weatherlink.com 1.10,2013-01-03 04:52:00,